Location: Calvatone
(45.1167°N, 10.4333°E)
Time: 09:34:56
(UTC+00:00)

DMSP 5D-2 F13 DEB - Pass Details

Date: 26 June 2024
Orbit: 755 x 782 km, 98.6° (Epoch: 18 July)

Event Time Altitude Azimuth Distance (km) Brightness Sun altitude
Rises 19:45:23 0° 214° (SSW) 3,266 ? -5.8°
Reaches altitude 10° 19:48:47 10° 237° (WSW) 2,341 ? -6.2°
Maximum altitude 19:51:36 15° 271° (W) 2,033 ? -6.6°
Drops below altitude 10° 19:54:26 10° 304° (NW) 2,344 ? -6.9°
Sets 19:57:52 0° 328° (NNW) 3,272 ? -7.4°
